Home   Weather   Cambridge   Past weeks

Flag for Canada Past Weather in Cambridge, Ontario, Canada — Yesterday and Last 2 Weeks

Now
64 °F

Partly sunny.


Feels Like: 64 °F
Forecast: 53 / 68 °F
Wind: 6 mph from North

Location: Waterloo Well

Current Time: May 23, 2017 at 8:27:34 pm

Latest Report: May 23, 2017 at 7:00 pm


Visibility: 9 mi

Pressure: 29.78 "Hg

Humidity: 68%

Dew Point: 54 °F

Location of CambridgeLocation

Past Weather in Cambridge — Graph

°F

Cambridge Temperature Yesterday

Maximum temperature yesterday: 63 °F (at 7:00 pm)
Minimum temperature yesterday: 48 °F (at 6:05 am)
Average temperature yesterday: 56 °F

High & Low Weather Summary for the Past Weeks

 TemperatureHumidityPressure
High82 °F (May 17, 3:00 pm)100% (May 13, 5:40 am)30.33 "Hg (May 13, 5:40 am)
Low30 °F (May 9, 5:00 am)25% (May 20, 5:00 pm)29.68 "Hg (May 18, 6:01 pm)
Average54 °F69%29.96 "Hg
* Reported May 8 7:00 pm — May 23 7:00 pm, Cambridge. Weather by CustomWeather, © 2017

Note: Actual official high and low records may vary slightly from our data, if they occured in-between our weather recording intervals... More about our weather records

Advertising

Cambridge Weather History for the Previous 24 Hours

Scroll right to see more
 ConditionsComfort  
Time TempWeatherWind HumidityBarometerVisibility
7:00 pm
Tue, May 23
64 °FPartly sunny.6 mph68%29.78 "Hg9 mi
6:00 pm64 °FOvercast.5 mph68%29.79 "Hg9 mi
5:00 pm66 °FMore clouds than sun.5 mph60%29.79 "Hg9 mi
4:00 pm68 °FMostly cloudy.2 mph56%29.80 "Hg9 mi
3:00 pm68 °FPartly sunny.8 mph56%29.82 "Hg9 mi
2:00 pm68 °FPartly sunny.10 mph56%29.85 "Hg9 mi
1:00 pm66 °FScattered clouds.10 mph56%29.86 "Hg9 mi
12:00 pm66 °FMostly cloudy.9 mph60%29.88 "Hg9 mi
11:00 am66 °FPartly sunny.10 mph60%29.89 "Hg9 mi
10:00 am63 °FPassing clouds.10 mph64%29.90 "Hg9 mi
9:00 am63 °FSunny.13 mph64%29.89 "Hg9 mi
8:00 am57 °FOvercast.9 mph77%29.89 "Hg9 mi
7:00 am52 °FScattered clouds.3 mph88%29.90 "Hg9 mi
6:00 am46 °FPartly sunny.3 mph93%29.90 "Hg9 mi
5:00 am45 °FFog.3 mph100%29.90 "Hg6 mi
4:40 am45 °FFog.6 mph93%29.91 "Hg5 mi
4:00 am48 °FOvercast.3 mph94%29.92 "Hg9 mi
3:00 am46 °FClear.2 mph93%29.94 "Hg8 mi
2:37 am46 °FFog.2 mph93%29.95 "Hg6 mi
2:18 am45 °FFog.2 mph100%29.95 "Hg5 mi
1:58 am46 °FFog.2 mph93%29.94 "Hg6 mi
1:19 am46 °FFog.2 mph93%29.94 "Hg3 mi
1:08 am45 °FFog.3 mph100%29.95 "Hg2 mi
12:44 am46 °FFog.No wind93%29.95 "Hg5 mi
12:00 am48 °FPassing clouds.No wind87%29.96 "Hg7 mi
11:00 pm
Mon, May 22
50 °FPassing clouds.No wind88%29.98 "Hg9 mi
10:00 pm54 °FClear.7 mph77%29.98 "Hg9 mi
9:00 pm55 °FClear.9 mph77%29.96 "Hg9 mi
8:00 pm61 °FSunny.12 mph55%29.93 "Hg9 mi
Weather by CustomWeather, © 2017

See weather overviewHow to use our weather pages